Time,TemperatureF,DewpointF,PressureIn,WindDirection,WindDirectionDegrees,WindSpeedMPH,WindSpeedGustMPH,Humidity,HourlyPrecipIn,Conditions,Clouds,dailyrainin,SoftwareType,DateUTC
2013-10-09 00:14:00,59.0,-99.9,30.39,East,88,9.0,-999.0,-999,-99.99,,,-99.99,,2013-10-09 04:14:00,
2013-10-09 00:24:00,59.0,-99.9,30.39,East,88,9.0,-999.0,-999,-99.99,,,-99.99,,2013-10-09 04:24:00,
2013-10-09 00:30:00,59.0,-99.9,30.40,East,83,16.0,-999.0,-999,-99.99,,,-99.99,,2013-10-09 04:30:00,
2013-10-09 01:13:00,59.0,-99.9,30.40,East,83,16.0,-999.0,-999,-99.99,,,-99.99,,2013-10-09 05:13:00,
2013-10-09 01:22:00,59.0,-99.9,30.40,East,83,16.0,-999.0,-999,-99.99,,,-99.99,,2013-10-09 05:22:00,
2013-10-09 01:30:00,59.0,-99.9,30.40,East,81,15.0,-999.0,-999,-99.99,,,-99.99,,2013-10-09 05:30:00,
2013-10-09 02:12:00,59.0,-99.9,30.40,East,81,15.0,-999.0,-999,-99.99,,,-99.99,,2013-10-09 06:12:00,
2013-10-09 02:22:00,59.0,-99.9,30.40,East,81,15.0,-999.0,-999,-99.99,,,-99.99,,2013-10-09 06:22:00,
2013-10-09 02:30:00,58.0,-99.9,30.41,ENE,68,21.0,-999.0,-999,-99.99,,,-99.99,,2013-10-09 06:30:00,
2013-10-09 03:12:00,58.0,-99.9,30.41,ENE,68,21.0,-999.0,-999,-99.99,,,-99.99,,2013-10-09 07:12:00,
2013-10-09 03:22:00,58.0,-99.9,30.41,ENE,68,21.0,-999.0,-999,-99.99,,,-99.99,,2013-10-09 07:22:00,
2013-10-09 04:12:00,58.0,-99.9,30.41,East,89,18.0,-999.0,-999,-99.99,,,-99.99,,2013-10-09 08:12:00,
2013-10-09 04:23:00,58.0,-99.9,30.41,East,89,18.0,-999.0,-999,-99.99,,,-99.99,,2013-10-09 08:23:00,
2013-10-09 04:30:00,57.0,-99.9,30.41,East,82,17.0,-999.0,-999,-99.99,,,-99.99,,2013-10-09 08:30:00,
2013-10-09 04:42:00,58.0,-99.9,30.41,East,80,18.0,-999.0,-999,-99.99,,,-99.99,,2013-10-09 08:42:00,
2013-10-09 05:11:00,57.0,-99.9,30.41,East,82,17.0,-999.0,-999,-99.99,,,-99.99,,2013-10-09 09:11:00,
2013-10-09 05:22:00,57.0,-99.9,30.41,East,82,17.0,-999.0,-999,-99.99,,,-99.99,,2013-10-09 09:22:00,
2013-10-09 05:30:00,57.0,-99.9,30.42,East,86,18.0,-999.0,-999,-99.99,,,-99.99,,2013-10-09 09:30:00,
2013-10-09 06:13:00,57.0,-99.9,30.42,East,86,18.0,-999.0,-999,-99.99,,,-99.99,,2013-10-09 10:13:00,
2013-10-09 06:23:00,57.0,-99.9,30.42,East,86,18.0,-999.0,-999,-99.99,,,-99.99,,2013-10-09 10:23:00,
2013-10-09 06:30:00,57.0,-99.9,30.43,East,81,18.0,-999.0,-999,-99.99,,,-99.99,,2013-10-09 10:30:00,
2013-10-09 07:12:00,57.0,-99.9,30.43,East,81,18.0,-999.0,-999,-99.99,,,-99.99,,2013-10-09 11:12:00,
2013-10-09 07:22:00,57.0,-99.9,30.43,East,81,18.0,-999.0,-999,-99.99,,,-99.99,,2013-10-09 11:22:00,
2013-10-09 07:30:00,57.0,-99.9,30.44,East,82,16.0,-999.0,-999,-99.99,,,-99.99,,2013-10-09 11:30:00,
2013-10-09 08:12:00,57.0,-99.9,-100.00,East,82,16.0,-999.0,-999,-99.99,,,-99.99,,2013-10-09 12:12:00,
2013-10-09 08:22:00,57.0,-99.9,30.44,East,82,16.0,-999.0,-999,-99.99,,,-99.99,,2013-10-09 12:22:00,
2013-10-09 08:30:00,57.0,-99.9,30.46,East,91,14.0,-999.0,-999,-99.99,,,-99.99,,2013-10-09 12:30:00,
2013-10-09 09:12:00,57.0,-99.9,30.46,East,91,14.0,-999.0,-999,-99.99,,,-99.99,,2013-10-09 13:12:00,
2013-10-09 09:22:00,57.0,-99.9,30.46,East,91,14.0,-999.0,-999,-99.99,,,-99.99,,2013-10-09 13:22:00,
2013-10-09 10:11:00,59.0,-99.9,30.47,East,92,13.0,-999.0,-999,-99.99,,,-99.99,,2013-10-09 14:11:00,
2013-10-09 10:22:00,59.0,-99.9,30.47,East,92,13.0,-999.0,-999,-99.99,,,-99.99,,2013-10-09 14:22:00,
2013-10-09 10:30:00,59.0,-99.9,-100.00,East,94,15.0,-999.0,-999,-99.99,,,-99.99,,2013-10-09 14:30:00,
2013-10-09 10:42:00,59.0,-99.9,-100.00,East,92,5.0,-999.0,-999,-99.99,,,-99.99,,2013-10-09 14:42:00,
2013-10-09 11:12:00,59.0,-99.9,-100.00,East,94,15.0,-999.0,-999,-99.99,,,-99.99,,2013-10-09 15:12:00,
2013-10-09 11:22:00,59.0,-99.9,-100.00,East,94,15.0,-999.0,-999,-99.99,,,-99.99,,2013-10-09 15:22:00,
2013-10-09 11:30:00,59.0,-99.9,30.47,East,97,16.0,-999.0,-999,-99.99,,,-99.99,,2013-10-09 15:30:00,
2013-10-09 12:13:00,59.0,-99.9,30.47,East,97,16.0,-999.0,-999,-99.99,,,-99.99,,2013-10-09 16:13:00,
2013-10-09 12:24:00,59.0,-99.9,30.47,East,97,16.0,-999.0,-999,-99.99,,,-99.99,,2013-10-09 16:24:00,
2013-10-09 12:30:00,59.0,-99.9,30.47,East,91,16.0,-999.0,-999,-99.99,,,-99.99,,2013-10-09 16:30:00,
2013-10-09 13:13:00,59.0,-99.9,30.47,East,91,16.0,-999.0,-999,-99.99,,,-99.99,,2013-10-09 17:13:00,
2013-10-09 13:23:00,59.0,-99.9,30.47,East,91,16.0,-999.0,-999,-99.99,,,-99.99,,2013-10-09 17:23:00,
2013-10-09 13:30:00,60.0,-99.9,30.46,East,98,9.0,-999.0,-999,-99.99,,,-99.99,,2013-10-09 17:30:00,
2013-10-09 14:12:00,60.0,-99.9,30.46,East,98,9.0,-999.0,-999,-99.99,,,-99.99,,2013-10-09 18:12:00,
2013-10-09 14:22:00,60.0,-99.9,30.46,East,98,9.0,-999.0,-999,-99.99,,,-99.99,,2013-10-09 18:22:00,
2013-10-09 14:30:00,60.0,-99.9,30.44,East,84,13.0,-999.0,-999,-99.99,,,-99.99,,2013-10-09 18:30:00,
2013-10-09 15:12:00,60.0,-99.9,30.44,East,84,13.0,-999.0,-999,-99.99,,,-99.99,,2013-10-09 19:12:00,
2013-10-09 15:22:00,60.0,-99.9,30.44,East,84,13.0,-999.0,-999,-99.99,,,-99.99,,2013-10-09 19:22:00,
2013-10-09 16:11:00,59.0,-99.9,30.44,East,92,13.0,-999.0,-999,-99.99,,,-99.99,,2013-10-09 20:11:00,
2013-10-09 16:22:00,59.0,-99.9,30.44,East,92,13.0,-999.0,-999,-99.99,,,-99.99,,2013-10-09 20:22:00,
2013-10-09 16:30:00,58.0,-99.9,30.44,East,83,5.0,-999.0,-999,-99.99,,,-99.99,,2013-10-09 20:30:00,
2013-10-09 16:43:00,59.0,-99.9,30.43,East,101,8.0,-999.0,-999,-99.99,,,-99.99,,2013-10-09 20:43:00,
2013-10-09 17:12:00,58.0,-99.9,30.44,East,83,5.0,-999.0,-999,-99.99,,,-99.99,,2013-10-09 21:12:00,
2013-10-09 17:23:00,58.0,-99.9,30.44,East,83,5.0,-999.0,-999,-99.99,,,-99.99,,2013-10-09 21:23:00,
2013-10-09 17:30:00,57.0,-99.9,30.43,ESE,113,11.0,-999.0,-999,-99.99,,,-99.99,,2013-10-09 21:30:00,
2013-10-09 18:13:00,57.0,-99.9,30.43,ESE,113,11.0,-999.0,-999,-99.99,,,-99.99,,2013-10-09 22:13:00,
2013-10-09 18:24:00,57.0,-99.9,30.43,ESE,113,11.0,-999.0,-999,-99.99,,,-99.99,,2013-10-09 22:24:00,
2013-10-09 18:30:00,56.0,-99.9,30.42,East,97,12.0,-999.0,-999,-99.99,,,-99.99,,2013-10-09 22:30:00,
2013-10-09 18:53:00,56.0,-99.9,30.42,East,97,12.0,-999.0,-999,-99.99,,,-99.99,,2013-10-09 22:53:00,
2013-10-09 19:03:00,56.0,-99.9,30.42,East,97,12.0,-999.0,-999,-99.99,,,-99.99,,2013-10-09 23:03:00,
2013-10-09 19:12:00,56.0,-99.9,30.42,East,97,12.0,-999.0,-999,-99.99,,,-99.99,,2013-10-09 23:12:00,
2013-10-09 19:22:00,56.0,-99.9,30.42,East,97,12.0,-999.0,-999,-99.99,,,-99.99,,2013-10-09 23:22:00,
2013-10-09 19:30:00,56.0,-99.9,30.41,East,90,13.0,-999.0,-999,-99.99,,,-99.99,,2013-10-09 23:30:00,
2013-10-09 19:54:00,56.0,-99.9,30.41,East,90,13.0,-999.0,-999,-99.99,,,-99.99,,2013-10-09 23:54:00,
2013-10-09 20:02:00,56.0,-99.9,30.41,East,90,13.0,-999.0,-999,-99.99,,,-99.99,,2013-10-10 00:02:00,
2013-10-09 20:12:00,56.0,-99.9,30.41,East,90,13.0,-999.0,-999,-99.99,,,-99.99,,2013-10-10 00:12:00,
2013-10-09 20:22:00,56.0,-99.9,30.41,East,90,13.0,-999.0,-999,-99.99,,,-99.99,,2013-10-10 00:22:00,
2013-10-09 20:30:00,56.0,-99.9,30.41,ESE,107,13.0,-999.0,-999,-99.99,,,-99.99,,2013-10-10 00:30:00,
2013-10-09 21:11:00,56.0,-99.9,30.41,ESE,107,13.0,-999.0,-999,-99.99,,,-99.99,,2013-10-10 01:11:00,
2013-10-09 21:22:00,56.0,-99.9,30.41,ESE,107,13.0,-999.0,-999,-99.99,,,-99.99,,2013-10-10 01:22:00,
2013-10-09 22:12:00,57.0,-99.9,30.40,East,92,13.0,-999.0,-999,-99.99,,,-99.99,,2013-10-10 02:12:00,
2013-10-09 22:22:00,57.0,-99.9,30.40,East,92,13.0,-999.0,-999,-99.99,,,-99.99,,2013-10-10 02:22:00,
2013-10-09 22:30:00,56.0,-99.9,30.40,East,83,11.0,-999.0,-999,-99.99,,,-99.99,,2013-10-10 02:30:00,
2013-10-09 23:12:00,56.0,-99.9,30.40,East,83,11.0,-999.0,-999,-99.99,,,-99.99,,2013-10-10 03:12:00,
2013-10-09 23:22:00,56.0,-99.9,30.40,East,83,11.0,-999.0,-999,-99.99,,,-99.99,,2013-10-10 03:22:00,
2013-10-09 23:30:00,57.0,-99.9,30.39,East,95,9.0,-999.0,-999,-99.99,,,-99.99,,2013-10-10 03:30:00,